Regional Weather Roundup
Issued by NWS

Home | Current Version | Previous Version | Text Only | Print | Product List | Glossary Off
Versions: 1 2 3 4 5 6 7 8 9 10 11 12 13 14 15 16 17 18 19 20 21 22 23 24 25 26 27 28 29 30 31 32 33 34 35 36 37 38 39 40 41 42 43 44 45 46 47 48 49 50

000
ASUS43 KMKX 262113
RWRWI

WISCONSIN REGIONAL WEATHER ROUNDUP
NATIONAL WEATHER SERVICE MILWAUKEE/SULLIVAN WI
400 PM CDT TUE MAY 26 2015

NOTE: "FAIR" INDICATES FEW OR NO CLOUDS BELOW 12,000 FEET WITH NO
SIGNIFICANT WEATHER AND/OR OBSTRUCTIONS TO VISIBILITY.

WIZ001-002-006>008-014>016-023>028-262200-
NORTHWEST WISCONSIN

CITY           SKY/WX    TMP DP  RH WIND       PRES   REMARKS
SUPERIOR ARPT  CLOUDY    57  53  84 NE7       29.82S
ASHLAND        CLOUDY    57  53  86 NE8       29.81F
HAYWARD        LGT RAIN  56  53  90 N9        29.78F
SIREN          RAIN      57  55  95 NE8       29.79S
CUMBERLAND     LGT RAIN  59  57  94 N10       29.75F
RICE LAKE      DRIZZLE   63  60  88 N13       29.75F
CHETEK         LGT RAIN  65  64  96 NW3       29.73F
LADYSMITH      CLOUDY    65  62  89 NE7       29.76F
EAU CLAIRE     CLOUDY    65  59  81 N8        29.70F
MENOMONIE      RAIN      65  62  92 N3        29.72F
NEW RICHMOND   LGT RAIN  60  60 100 N9        29.76S
OSCEOLA        LGT RAIN  58  58 100 NW6       29.80R
$$

WIZ003>005-009-010-017-018-262200-
NORTH CENTRAL WISCONSIN

CITY           SKY/WX    TMP DP  RH WIND       PRES   REMARKS
MANITOWISH WTR LGT RAIN  61  60  97 N7        29.78F
ARBOR VITAE    LGT RAIN  64  62  92 NE3       29.77F
WOODRUFF       LGT RAIN  64  62  92 NE3       29.77F
RHINELANDER    LGT RAIN  64  59  83 CALM      29.76F
EAGLE RIVER    RAIN      66  64  90 W3        29.77F
LAND O LAKES   CLOUDY    64  58  81 N10G16    29.79S
PHILLIPS       LGT RAIN  64  64  99 N3        29.75F
TOMAHAWK       LGT RAIN  62  60  94 CALM      29.76F
MEDFORD        LGT RAIN  64  62  94 NE8       29.71F
MERRILL        LGT RAIN  62  62 100 N5        29.73F
$$

WIZ029-030-035-036-043>047-262200-
CENTRAL WISCONSIN

CITY           SKY/WX    TMP DP  RH WIND       PRES   REMARKS
WAUSAU         CLOUDY    64  61  90 NE7       29.68F
MOSINEE        CLOUDY    64  63  94 NE13      29.72F
MARSHFIELD     CLOUDY    67  60  78 NE9       29.68F
STEVENS POINT  CLOUDY    63  61  94 NE9       29.69F
WAUPACA        RAIN      68  67  97 E14       29.68F
WAUTOMA        LGT RAIN  66  66 100 NE9       29.65F FOG
WISC RAPIDS    LGT RAIN  65  60  84 NE9       29.67F
CAMP DOUGLAS   CLOUDY    65  65 100 E5        29.65F
$$

WIZ011>013-019>022-031-037>040-048>050-262200-
NORTHEAST WISCONSIN

CITY           SKY/WX    TMP DP  RH WIND       PRES   REMARKS
ANTIGO         LGT RAIN  64  63  94 NE7       29.75F
SHAWANO        LGT RAIN  69  66  90 E7        29.71F
OCONTO         CLOUDY    64  64 100 SE8       29.73F
STURGEON BAY   CLOUDY    64  61  88 SE9       29.76F
GREEN BAY      HVY RAIN  66  64  93 SE15      29.71F VSB 1
MANITOWOC      FOG       61  61 100 SE14G21   29.72F VSB 1/4
APPLETON       RAIN      64  64 100 E16       29.69F FOG
CLINTONVILLE   LGT RAIN  66  64  94 SE5       29.70F
OSHKOSH        CLOUDY    69  64  84 S9        29.65F
$$

WIZ032>034-041-042-053>061-262200-
SOUTHWEST WISCONSIN

CITY           SKY/WX    TMP DP  RH WIND       PRES   REMARKS
LA CROSSE      LGT RAIN  66  62  87 CALM      29.62F FOG
SPARTA         CLOUDY    66  61  83 E9        29.66F
VIROQUA        CLOUDY    66  66 100 SE8       29.65F
BOSCOBEL       LGT RAIN  70  63  78 S12G17    29.64F
PRAIRIE DU CHI CLOUDY    67  66  95 S7        29.64S
PLATTEVILLE    CLOUDY    68  66  94 SW12G17   29.66F
$$

WIZ056-057-062-063-064-067-068-262200-
SOUTH CENTRAL WISCONSIN

CITY           SKY/WX    TMP DP  RH WIND       PRES   REMARKS
REEDSBURG      CLOUDY    68  66  92 S5        29.65F
BARABOO/DELLS  PTSUNNY   70  65  83 SW12      29.65F
LONE ROCK      NOT AVBL
MINERAL POINT  CLOUDY    72  64  78 S10       29.66F
MADISON        PTSUNNY   76  62  62 S16G25    29.65F
MIDDLETON      PTSUNNY   76  62  61 S15       29.67F
WATERTOWN      PTSUNNY   73  64  74 SW18G26   29.69S
MONROE         PTSUNNY   73  63  68 S20G30    29.68F
JANESVILLE     PTSUNNY   77  63  61 S18G24    29.69F
$$

WIZ051-052-058>065-066-070>072-262200-
SOUTHEAST WISCONSIN

CITY           SKY/WX    TMP DP  RH WIND       PRES   REMARKS
MILWAUKEE      PTSUNNY   74  63  68 SW20G28   29.71F
WAUKESHA       PTSUNNY   73  63  68 S22G29    29.72F
MILWAUKEE/TIMM PTSUNNY   73  64  73 S18G24    29.72F
RACINE         PTSUNNY   75  63  66 SW12G29   29.74F
BURLINGTON     PTSUNNY   73  63  70 S16G26    29.72F
KENOSHA        PTSUNNY   75  63  66 SW18G26   29.73F
FOND DU LAC    PTSUNNY   72  66  81 S18G28    29.66F
SHEBOYGAN      CLOUDY    64  63  96 S14G24    29.71F FOG
WEST BEND      CLOUDY    68  64  88 SE9       29.70F
JUNEAU         PTSUNNY   74  64  71 SW22G30   29.70S
$$

LSZ147-162-262200-
LAKE SUPERIOR

STATION/POSITION TIME  TEMP    WIND        PRES    WAVE
                       AIR SEA DIR/SP/G            HT/PER
                 (UTC) (F)     (DEG/KT/KT) (MB)    (FT/S)
W MID LAKE BUOY  1950   40 37   30/  2/  2   N/A     0
DEVILS ISLAND    2000   47      30/  7/  8   N/A
PORT WING        1900   47      20/  6/  7   N/A
SAXON HARBOR     2040   50        CALM       N/A
$$

LMZ867-665-643>646-262200-
LAKE MICHIGAN

STATION/POSITION TIME  TEMP    WIND        PRES    WAVE
                       AIR SEA DIR/SP/G            HT/PER
                 (UTC) (F)     (DEG/KT/KT) (MB)    (FT/S)
CHAMBERS ISLAND  1900   63     140/  9/ 18   N/A
N MID LAKE BUOY  1950   47 37  220/  6/  8   N/A     3/ 5
NORTHPORT PIER   2020   61     160/  9/ 22 1088.0
SISTER BAY       2003   64     160/ 17/ 25   N/A
ALGOMA LAKESHORE 1938          200/  8/  9   N/A
KEWAUNEE LAKESHO 2000   49     160/  2/  5 1081.0
SHEBOYGAN LAKESH 2000   55     120/ 22/ 23 1063.0
PORT WASHINGTON  2000   55     200/  6/ 19 1075.0F
ATWATER BUOY     2000   54 47  160/  8/ 10 1083.0
MILWAUKEE LAKESH 2000   55     140/ 12/ 13   N/A
S MID LAKE BUOY  1950   50 38  180/ 16/ 17 1083.0
KENOSHA   LAKESH 2000   58     190/ 12/ 17 1071.0F
$$

TC  - TEMPERATURE IN CELSIUS
VSB - VISIBILITY IN STATUTE MILES
WCI - WIND CHILL INDEX
HX  - HEAT INDEX



USA.gov is the U.S. government's official web portal to all federal, state and local government web resources and services.